Regional Weather Roundup
Issued by NWS

Home | Current Version | Previous Version | Text Only | Print | Product List | Glossary Off
Versions: 1 2 3 4 5 6 7 8 9 10 11 12 13 14 15 16 17 18 19 20 21 22 23 24 25 26 27 28 29 30 31 32 33 34 35 36 37 38 39 40 41 42 43 44 45 46 47 48 49 50

000
ASUS43 KLMK 241202
RWRKY
KENTUCKY REGIONAL WEATHER ROUNDUP
NATIONAL WEATHER SERVICE LOUISVILLE KY
800 AM EDT TUE APR 24 2018

NOTE "FAIR" INDICATES FEW OR NO CLOUDS BELOW 12,000 FEET
WITH NO SIGNIFICANT WEATHER AND/OR OBSTRUCTIONS TO VISIBILITY.

KYZ001>023-026-027-061>063-070>075-241300-
WESTERN AND SOUTH CENTRAL KENTUCKY

CITY           SKY/WX    TMP DP  RH WIND       PRES   REMARKS
PADUCAH        CLOUDY    56  55  97 NW5       29.93R FOG
HENDERSON      FAIR      55  53  93 N5        29.94R
OWENSBORO      CLOUDY    56  53  90 N6        29.93R
HOPKINSVILLE   NOT AVBL
BOWLING GREEN  CLOUDY    56  55  97 CALM      29.90S
GLASGOW        NOT AVBL
$$

KYZ024-025-028>034-038-045-046-053-241300-
NORTH CENTRAL KENTUCKY

CITY           SKY/WX    TMP DP  RH WIND       PRES   REMARKS
LOUISVILLE/SDF LGT RAIN  54  52  93 NE7       29.93R FOG
LOUISVILLE/LOU LGT RAIN  54  53  97 E5        29.93R FOG
FORT KNOX      CLOUDY    53  53 100 NE6       29.92R
$$

KYZ035>037-039>044-047>052-055>060-089>105-241300-
NORTHEAST KENTUCKY

CITY           SKY/WX    TMP DP  RH WIND       PRES   REMARKS
LEXINGTON      LGT RAIN  52  49  89 NE12      29.91F
COVINGTON      LGT RAIN  52  51  97 E8        29.95S
FRANKFORT      LGT RAIN  53  49  86 NE7       29.91S
$$

KYZ054-064>069-076>088-106>120-241300-
SOUTHEAST KENTUCKY

CITY           SKY/WX    TMP DP  RH WIND       PRES   REMARKS
JACKSON        LGT RAIN  54  48  80 NE3       29.92R
LONDON         RAIN      52  52 100 CALM      29.91R FOG
SOMERSET       NOT AVBL
MIDDLESBORO    RAIN      53  53 100 CALM      29.92R
MONTICELLO     CLOUDY    54  53  97 NW7       29.92R
$$




USA.gov is the U.S. government's official web portal to all federal, state and local government web resources and services.